Regional Weather Roundup
Issued by NWS

Home | Current Version | Previous Version | Graphics & Text | Print | Product List | Glossary On
Versions: 1 2 3 4 5 6 7 8 9 10 11 12 13 14 15 16 17 18 19 20 21 22 23 24 25 26 27 28 29 30 31 32 33 34 35 36 37 38 39 40 41 42 43 44 45 46 47 48 49 50
000
ASUS43 KOAX 210802
RWRNE

WEATHER ROUNDUP FOR NEBRASKA
NATIONAL WEATHER SERVICE OMAHA NE
300 AM CDT TUE OCT 21 2014

NOTES: SATELLITE DATA IS BEING USED TO AUGMENT CLOUD COVER ABOVE
       12000 FEET.
       "FAIR" INDICATES FEW OR NO CLOUDS BELOW 12,000 FEET WITH NO
       SIGNIFICANT WEATHER AND/OR OBSTRUCTIONS TO VISIBILITY.

  * THESE STATIONS DO NOT REPORT WEATHER SUCH AS RAIN...SNOW OR FOG.

NEZ001>004-019>022-054>056-210900-
NEBRASKA PANHANDLE

CITY           SKY/WX    TMP DP  RH WIND       PRES   REMARKS
SCOTTSBLUFF    CLEAR     57  41  55 SE7       29.99S
ALLIANCE       CLEAR     48  40  73 S10       30.00S
CHADRON        CLEAR     63  42  46 S17       29.91F
KIMBALL        CLEAR     47  40  77 S7        30.02S
SIDNEY         CLEAR     51  41  68 S12       30.05S
$$

NEZ057>060-069>072-079>082-210900-
SOUTHWEST NEBRASKA

CITY           SKY/WX    TMP DP  RH WIND       PRES   REMARKS
NORTH PLATTE   CLEAR     45  37  73 NE3       30.05S
IMPERIAL       CLEAR     51  38  60 S7        30.06F
LEXINGTON      CLEAR     53  42  66 SW3       30.06S
MCCOOK         CLEAR     50  40  68 SW7       30.07S
OGALLALA       CLEAR     51  40  66 CALM      30.04F
$$

NEZ005>010-023>029-035>040-094-210900-
NORTH CENTRAL NEBRASKA

CITY           SKY/WX    TMP DP  RH WIND       PRES   REMARKS
VALENTINE      CLEAR     53  39  59 S7        29.97S
AINSWORTH      CLEAR     53  40  60 S10       29.99S
BROKEN BOW     CLEAR     46  39  76 CALM      30.05S
O`NEILL        CLEAR     49  41  74 SE7       30.04S
ORD            CLEAR     40  36  86 CALM      30.05S
THEDFORD       CLEAR     54  41  60 S8        30.03S
$$

NEZ041-046>049-061>064-073>077-083>087-210900-
SOUTH CENTRAL NEBRASKA

CITY           SKY/WX    TMP DP  RH WIND       PRES   REMARKS
GRAND ISLAND   CLEAR     49  40  71 S8        30.08R
AURORA         CLEAR     51  37  59 S7        30.08R
HASTINGS       CLEAR     51  39  63 S6        30.08R
HEBRON         CLEAR     41  37  84 CALM      30.09R
HOLDREGE       CLEAR     48  39  72 CALM      30.07S
KEARNEY *      CLEAR     43  37  81 SE3       30.09R
YORK           CLEAR     48  37  66 S5        30.08S
$$

NEZ011>018-030>034-042>045-210900-
NORTHEAST NEBRASKA

CITY           SKY/WX    TMP DP  RH WIND       PRES   REMARKS
NORFOLK        CLEAR     43  35  73 CALM      30.07R
ALBION         CLEAR     40  35  82 CALM      30.07R
COLUMBUS *     CLEAR     41  34  75 CALM      30.09R
FREMONT        CLEAR     43  41  93 CALM      30.08R
TEKAMAH        CLEAR     39  35  86 CALM      30.08S
WAYNE          CLEAR     37  33  89 CALM      30.09R
$$

NEZ050>053-065>068-078-088>093-210900-
SOUTHEAST NEBRASKA

CITY           SKY/WX    TMP DP  RH WIND       PRES   REMARKS
LINCOLN        CLEAR     39  35  86 CALM      30.10R
OMAHA EPPLEY   CLEAR     45  41  86 CALM      30.09R
BEATRICE       CLEAR     39  37  91 CALM      30.09S FOG
FALLS CITY     CLEAR     40  38  93 NW3       30.09R
NEBRASKA CITY  CLEAR     50  33  52 SW3       30.09R
PLATTSMOUTH    CLEAR     53  37  54 CALM      30.08S
$$

NEZ044-045-051>053-067-210900-
OMAHA AREA

CITY           SKY/WX    TMP DP  RH WIND       PRES   REMARKS
OMAHA EPPLEY   CLEAR     45  41  86 CALM      30.09R
FREMONT        CLEAR     43  41  93 CALM      30.08R
MILLARD        CLEAR     43  42  96 CALM      30.09R FOG
OFFUTT AFB     CLEAR     38  38 100 CALM      30.08R
PLATTSMOUTH    CLEAR     53  37  54 CALM      30.08S
WAHOO            N/A     41  37  85 CALM      30.09R FOG
$$



USA.gov is the U.S. government's official web portal to all federal, state and local government web resources and services.